Regional Weather Roundup
Issued by NWS

Home | Current Version | Previous Version | Graphics & Text | Print | Product List | Glossary On
Versions: 1 2 3 4 5 6 7 8 9 10 11 12 13 14 15 16 17 18 19 20 21 22 23 24 25 26 27 28 29 30 31 32 33 34 35 36 37 38 39 40 41 42 43 44 45 46 47 48 49 50
000
ASUS43 KBIS 280810
RWRND

NORTH DAKOTA REGIONAL WEATHER ROUNDUP
NATIONAL WEATHER SERVICE BISMARCK ND
300 AM CDT WED JUN 28 2017

NOTE: "FAIR" INDICATES FEW OR NO CLOUDS BELOW 12,000 FEET WITH NO
SIGNIFICANT WEATHER AND/OR OBSTRUCTIONS TO VISIBILITY.


NDZ001>003-009>011-017-280900-
NORTHWEST NORTH DAKOTA

CITY           SKY/WX    TMP DP  RH WIND       PRES   REMARKS
WILLISTON      PTCLDY    64  52  64 NW13      29.68S
MINOT          CLOUDY    65  57  75 NW18      29.55F
MINOT AFB      CLOUDY    64  57  77 NW16G23   29.55F
$$

NDZ018>021-031>035-040>046-280900-
SOUTHWEST NORTH DAKOTA

CITY           SKY/WX    TMP DP  RH WIND       PRES   REMARKS
BISMARCK       CLOUDY    64  63  96 N6        29.53R
DICKINSON      CLOUDY    63  54  72 N15G22    29.64S
GARRISON         N/A     63  57  81 NW18      29.56R
HETTINGER ARPT MOCLDY    61  54  77 NW14      29.66F
$$

NDZ004>008-012>016-024-026-027-054-280900-
NORTHEAST NORTH DAKOTA

CITY           SKY/WX    TMP DP  RH WIND       PRES   REMARKS
GRAND FORKS    LGT RAIN  61  58  90 SE16      29.51F
GRND FRKS AFB  TSTM      60  60 100 S10       29.53F
DEVILS LAKE    LGT RAIN  63  62  97 S7        29.53R
$$

NDZ022-023-025-028>030-036>039-047>053-280900-
SOUTHEAST NORTH DAKOTA

CITY           SKY/WX    TMP DP  RH WIND       PRES   REMARKS
FARGO          CLOUDY    63  60  90 E10       29.52R
JAMESTOWN      CLOUDY    63  55  75 E16       29.49R
$$




USA.gov is the U.S. government's official web portal to all federal, state and local government web resources and services.